Time,TemperatureF,DewpointF,PressureIn,WindDirection,WindDirectionDegrees,WindSpeedMPH,WindSpeedGustMPH,Humidity,HourlyPrecipIn,Conditions,Clouds,dailyrainin,SolarRadiationWatts/m^2,SoftwareType,DateUTC
2013-02-21 00:01:00,25.0,23.0,-100.00,East,80,1.0,4.0,91,0.00,,,0.01,0.000000,,2013-02-21 07:01:00,
2013-02-21 00:11:00,25.0,23.0,-100.00,East,80,1.0,4.0,91,0.00,,,0.01,0.000000,,2013-02-21 07:11:00,
2013-02-21 00:21:00,25.0,23.0,-100.00,East,80,1.0,4.0,91,0.00,,,0.01,0.000000,,2013-02-21 07:21:00,
2013-02-21 00:31:00,25.0,23.0,-100.00,East,80,1.0,4.0,91,0.00,,,0.01,0.000000,,2013-02-21 07:31:00,
2013-02-21 00:41:00,25.0,23.0,-100.00,East,80,1.0,4.0,91,0.00,,,0.01,0.000000,,2013-02-21 07:41:00,
2013-02-21 01:01:00,23.0,20.0,-100.00,SSE,155,1.0,4.0,89,0.00,,,0.01,0.000000,,2013-02-21 08:01:00,
2013-02-21 01:11:00,23.0,20.0,-100.00,SSE,155,1.0,4.0,89,0.00,,,0.01,0.000000,,2013-02-21 08:11:00,
2013-02-21 01:21:00,23.0,20.0,-100.00,SSE,155,1.0,4.0,89,0.00,,,0.01,0.000000,,2013-02-21 08:21:00,
2013-02-21 01:31:00,23.0,20.0,-100.00,SSE,155,1.0,4.0,89,0.00,,,0.01,0.000000,,2013-02-21 08:31:00,
2013-02-21 01:41:00,23.0,20.0,-100.00,SSE,155,1.0,4.0,89,0.00,,,0.01,0.000000,,2013-02-21 08:41:00,
2013-02-21 02:01:00,25.0,22.0,-100.00,ENE,78,0.0,3.0,89,0.00,,,0.01,0.000000,,2013-02-21 09:01:00,
2013-02-21 02:11:00,25.0,22.0,-100.00,ENE,78,0.0,3.0,89,0.00,,,0.01,0.000000,,2013-02-21 09:11:00,
2013-02-21 02:22:00,25.0,22.0,-100.00,ENE,78,0.0,3.0,89,0.00,,,0.01,0.000000,,2013-02-21 09:22:00,
2013-02-21 02:31:00,25.0,22.0,-100.00,ENE,78,0.0,3.0,89,0.00,,,0.01,0.000000,,2013-02-21 09:31:00,
2013-02-21 02:41:00,25.0,22.0,-100.00,ENE,78,0.0,3.0,89,0.00,,,0.01,0.000000,,2013-02-21 09:41:00,
2013-02-21 03:01:00,26.0,24.0,-100.00,North,354,1.0,3.0,92,0.00,,,0.01,0.000000,,2013-02-21 10:01:00,
2013-02-21 03:11:00,26.0,24.0,-100.00,North,354,1.0,3.0,92,0.00,,,0.01,0.000000,,2013-02-21 10:11:00,
2013-02-21 03:21:00,26.0,24.0,-100.00,North,354,1.0,3.0,92,0.00,,,0.01,0.000000,,2013-02-21 10:21:00,
2013-02-21 03:31:00,26.0,24.0,-100.00,North,354,1.0,3.0,92,0.00,,,0.01,0.000000,,2013-02-21 10:31:00,
2013-02-21 03:41:00,26.0,24.0,-100.00,North,354,1.0,3.0,92,0.00,,,0.01,0.000000,,2013-02-21 10:41:00,
2013-02-21 04:01:00,27.0,25.0,-100.00,NW,308,2.0,5.0,91,0.00,,,0.01,0.000000,,2013-02-21 11:01:00,
2013-02-21 04:11:00,27.0,25.0,-100.00,NW,308,2.0,5.0,91,0.00,,,0.01,0.000000,,2013-02-21 11:11:00,
2013-02-21 04:21:00,27.0,25.0,-100.00,NW,308,2.0,5.0,91,0.00,,,0.01,0.000000,,2013-02-21 11:21:00,
2013-02-21 04:31:00,27.0,25.0,-100.00,NW,308,2.0,5.0,91,0.00,,,0.01,0.000000,,2013-02-21 11:31:00,
2013-02-21 04:41:00,27.0,25.0,-100.00,NW,308,2.0,5.0,91,0.00,,,0.01,0.000000,,2013-02-21 11:41:00,
2013-02-21 05:01:00,27.0,25.0,-100.00,WNW,296,0.0,4.0,92,0.00,,,0.01,0.000000,,2013-02-21 12:01:00,
2013-02-21 05:11:00,27.0,25.0,-100.00,WNW,296,0.0,4.0,92,0.00,,,0.01,0.000000,,2013-02-21 12:11:00,
2013-02-21 05:21:00,27.0,25.0,-100.00,WNW,296,0.0,4.0,92,0.00,,,0.01,0.000000,,2013-02-21 12:21:00,
2013-02-21 05:32:00,27.0,25.0,-100.00,WNW,296,0.0,4.0,92,0.00,,,0.01,0.000000,,2013-02-21 12:32:00,
2013-02-21 05:42:00,27.0,25.0,-100.00,WNW,296,0.0,4.0,92,0.00,,,0.01,0.000000,,2013-02-21 12:42:00,
2013-02-21 06:01:00,26.0,24.0,-100.00,WNW,294,0.0,3.0,92,0.00,,,0.01,0.000000,,2013-02-21 13:01:00,
2013-02-21 06:12:00,26.0,24.0,-100.00,WNW,294,0.0,3.0,92,0.00,,,0.01,0.000000,,2013-02-21 13:12:00,
2013-02-21 06:22:00,26.0,24.0,-100.00,WNW,294,0.0,3.0,92,0.00,,,0.01,0.000000,,2013-02-21 13:22:00,
2013-02-21 06:31:00,26.0,24.0,-100.00,WNW,294,0.0,3.0,92,0.00,,,0.01,0.000000,,2013-02-21 13:31:00,
2013-02-21 06:41:00,26.0,24.0,-100.00,WNW,294,0.0,3.0,92,0.00,,,0.01,0.000000,,2013-02-21 13:41:00,
2013-02-21 07:02:00,26.0,24.0,-100.00,NNW,327,0.0,3.0,93,0.00,,,0.01,0.000000,,2013-02-21 14:02:00,
2013-02-21 07:11:00,26.0,24.0,-100.00,NNW,327,0.0,3.0,93,0.00,,,0.01,0.000000,,2013-02-21 14:11:00,
2013-02-21 07:21:00,26.0,24.0,-100.00,NNW,327,0.0,3.0,93,0.00,,,0.01,0.000000,,2013-02-21 14:21:00,
2013-02-21 07:31:00,26.0,24.0,-100.00,NNW,327,0.0,3.0,93,0.00,,,0.01,0.000000,,2013-02-21 14:31:00,
2013-02-21 08:12:00,25.0,23.0,-100.00,SSE,155,2.0,3.0,93,-99.99,,,0.01,0.000000,,2013-02-21 15:12:00,
2013-02-21 08:21:00,25.0,23.0,-100.00,SSE,155,2.0,3.0,93,-99.99,,,0.01,0.000000,,2013-02-21 15:21:00,
2013-02-21 08:31:00,25.0,23.0,-100.00,SSE,155,2.0,3.0,93,-99.99,,,0.01,0.000000,,2013-02-21 15:31:00,
2013-02-21 08:41:00,25.0,23.0,-100.00,SSE,155,2.0,3.0,93,-99.99,,,0.01,0.000000,,2013-02-21 15:41:00,
2013-02-21 09:01:00,30.0,28.0,-100.00,South,191,1.0,6.0,92,0.00,,,0.01,16.000000,,2013-02-21 16:01:00,
2013-02-21 10:01:00,32.0,27.0,-100.00,North,4,3.0,6.0,81,0.02,,,0.03,200.000000,,2013-02-21 17:01:00,
2013-02-21 10:11:00,32.0,27.0,-100.00,North,4,3.0,6.0,81,0.02,,,0.03,200.000000,,2013-02-21 17:11:00,
2013-02-21 10:21:00,32.0,27.0,-100.00,North,4,3.0,6.0,81,0.02,,,0.03,200.000000,,2013-02-21 17:21:00,
2013-02-21 10:32:00,32.0,27.0,-100.00,North,4,3.0,6.0,81,0.02,,,0.03,200.000000,,2013-02-21 17:32:00,
2013-02-21 10:41:00,32.0,27.0,-100.00,North,4,3.0,6.0,81,0.02,,,0.03,200.000000,,2013-02-21 17:41:00,
2013-02-21 11:01:00,33.0,27.0,-100.00,SSW,208,6.0,10.0,77,0.00,,,0.03,228.000000,,2013-02-21 18:01:00,
2013-02-21 11:11:00,33.0,27.0,-100.00,SSW,208,6.0,10.0,77,0.00,,,0.03,228.000000,,2013-02-21 18:11:00,
2013-02-21 11:22:00,33.0,27.0,-100.00,SSW,208,6.0,10.0,77,0.00,,,0.03,228.000000,,2013-02-21 18:22:00,
2013-02-21 11:31:00,33.0,27.0,-100.00,SSW,208,6.0,10.0,77,0.00,,,0.03,228.000000,,2013-02-21 18:31:00,
2013-02-21 11:42:00,33.0,27.0,-100.00,SSW,208,6.0,10.0,77,0.00,,,0.03,228.000000,,2013-02-21 18:42:00,
2013-02-21 12:01:00,34.0,25.0,-100.00,SE,129,4.0,11.0,70,0.00,,,0.03,594.000000,,2013-02-21 19:01:00,
2013-02-21 12:11:00,34.0,25.0,-100.00,SE,129,4.0,11.0,70,0.00,,,0.03,594.000000,,2013-02-21 19:11:00,
2013-02-21 12:21:00,34.0,25.0,-100.00,SE,129,4.0,11.0,70,0.00,,,0.03,594.000000,,2013-02-21 19:21:00,
2013-02-21 12:31:00,34.0,25.0,-100.00,SE,129,4.0,11.0,70,0.00,,,0.03,594.000000,,2013-02-21 19:31:00,
2013-02-21 12:41:00,34.0,25.0,-100.00,SE,129,4.0,11.0,70,0.00,,,0.03,594.000000,,2013-02-21 19:41:00,
2013-02-21 13:01:00,36.0,23.0,-100.00,WSW,251,5.0,11.0,60,0.00,,,0.03,544.000000,,2013-02-21 20:01:00,
2013-02-21 13:11:00,36.0,23.0,-100.00,WSW,251,5.0,11.0,60,0.00,,,0.03,544.000000,,2013-02-21 20:11:00,
2013-02-21 13:21:00,36.0,23.0,-100.00,WSW,251,5.0,11.0,60,0.00,,,0.03,544.000000,,2013-02-21 20:21:00,
2013-02-21 13:31:00,36.0,23.0,-100.00,WSW,251,5.0,11.0,60,0.00,,,0.03,544.000000,,2013-02-21 20:31:00,
2013-02-21 13:41:00,36.0,23.0,-100.00,WSW,251,5.0,11.0,60,0.00,,,0.03,544.000000,,2013-02-21 20:41:00,
2013-02-21 14:02:00,32.0,27.0,-100.00,NNW,332,10.0,18.0,80,0.00,,,0.03,582.000000,,2013-02-21 21:02:00,
2013-02-21 14:11:00,32.0,27.0,-100.00,NNW,332,10.0,18.0,80,0.00,,,0.03,582.000000,,2013-02-21 21:11:00,
2013-02-21 14:21:00,32.0,27.0,-100.00,NNW,332,10.0,18.0,80,0.00,,,0.03,582.000000,,2013-02-21 21:21:00,
2013-02-21 14:31:00,32.0,27.0,-100.00,NNW,332,10.0,18.0,80,0.00,,,0.03,582.000000,,2013-02-21 21:31:00,
2013-02-21 14:41:00,32.0,27.0,-100.00,NNW,332,10.0,18.0,80,0.00,,,0.03,582.000000,,2013-02-21 21:41:00,
2013-02-21 15:01:00,33.0,26.0,-100.00,North,359,8.0,15.0,74,0.00,,,0.03,422.000000,,2013-02-21 22:01:00,
2013-02-21 15:11:00,33.0,26.0,-100.00,North,359,8.0,15.0,74,0.00,,,0.03,422.000000,,2013-02-21 22:11:00,
2013-02-21 15:21:00,33.0,26.0,-100.00,North,359,8.0,15.0,74,0.00,,,0.03,422.000000,,2013-02-21 22:21:00,
2013-02-21 15:31:00,33.0,26.0,-100.00,North,359,8.0,15.0,74,0.00,,,0.03,422.000000,,2013-02-21 22:31:00,
2013-02-21 15:41:00,33.0,26.0,-100.00,North,359,8.0,15.0,74,0.00,,,0.03,422.000000,,2013-02-21 22:41:00,
2013-02-21 16:01:00,32.0,29.0,-100.00,NW,312,7.0,13.0,90,0.00,,,0.03,160.000000,,2013-02-21 23:01:00,
2013-02-21 16:11:00,32.0,29.0,-100.00,NW,312,7.0,13.0,90,0.00,,,0.03,160.000000,,2013-02-21 23:11:00,
2013-02-21 16:21:00,32.0,29.0,-100.00,NW,312,7.0,13.0,90,0.00,,,0.03,160.000000,,2013-02-21 23:21:00,
2013-02-21 16:31:00,32.0,29.0,-100.00,NW,312,7.0,13.0,90,0.00,,,0.03,160.000000,,2013-02-21 23:31:00,
2013-02-21 16:41:00,32.0,29.0,-100.00,NW,312,7.0,13.0,90,0.00,,,0.03,160.000000,,2013-02-21 23:41:00,
2013-02-21 17:01:00,37.0,27.0,-100.00,North,353,2.0,10.0,68,0.01,,,0.04,404.000000,,2013-02-22 00:01:00,
2013-02-21 17:11:00,37.0,27.0,-100.00,North,353,2.0,10.0,68,0.01,,,0.04,404.000000,,2013-02-22 00:11:00,
2013-02-21 17:21:00,37.0,27.0,-100.00,North,353,2.0,10.0,68,0.01,,,0.04,404.000000,,2013-02-22 00:21:00,
2013-02-21 17:31:00,37.0,27.0,-100.00,North,353,2.0,10.0,68,0.01,,,0.04,404.000000,,2013-02-22 00:31:00,
2013-02-21 17:41:00,37.0,27.0,-100.00,North,353,2.0,10.0,68,0.01,,,0.04,404.000000,,2013-02-22 00:41:00,
2013-02-21 18:01:00,33.0,23.0,-100.00,SSE,159,1.0,4.0,66,0.00,,,0.03,136.000000,,2013-02-22 01:01:00,
2013-02-21 18:11:00,33.0,23.0,-100.00,SSE,159,1.0,4.0,66,0.00,,,0.03,136.000000,,2013-02-22 01:11:00,
2013-02-21 18:21:00,33.0,23.0,-100.00,SSE,159,1.0,4.0,66,0.00,,,0.03,136.000000,,2013-02-22 01:21:00,
2013-02-21 18:32:00,33.0,23.0,-100.00,SSE,159,1.0,4.0,66,0.00,,,0.03,136.000000,,2013-02-22 01:32:00,
2013-02-21 18:42:00,33.0,23.0,-100.00,SSE,159,1.0,4.0,66,0.00,,,0.03,136.000000,,2013-02-22 01:42:00,
2013-02-21 19:02:00,31.0,25.0,-100.00,WNW,284,4.0,6.0,78,0.00,,,0.03,4.000000,,2013-02-22 02:02:00,
2013-02-21 19:11:00,31.0,25.0,-100.00,WNW,284,4.0,6.0,78,0.00,,,0.03,4.000000,,2013-02-22 02:11:00,
2013-02-21 19:21:00,31.0,25.0,-100.00,WNW,284,4.0,6.0,78,0.00,,,0.03,4.000000,,2013-02-22 02:21:00,
2013-02-21 19:31:00,31.0,25.0,-100.00,WNW,284,4.0,6.0,78,0.00,,,0.03,4.000000,,2013-02-22 02:31:00,
2013-02-21 19:42:00,31.0,25.0,-100.00,WNW,284,4.0,6.0,78,0.00,,,0.03,4.000000,,2013-02-22 02:42:00,
2013-02-21 20:01:00,31.0,22.0,-100.00,NNW,328,4.0,13.0,68,0.00,,,0.03,0.000000,,2013-02-22 03:01:00,
2013-02-21 20:11:00,31.0,22.0,-100.00,NNW,328,4.0,13.0,68,0.00,,,0.03,0.000000,,2013-02-22 03:11:00,
2013-02-21 20:21:00,31.0,22.0,-100.00,NNW,328,4.0,13.0,68,0.00,,,0.03,0.000000,,2013-02-22 03:21:00,
2013-02-21 20:31:00,31.0,22.0,-100.00,NNW,328,4.0,13.0,68,0.00,,,0.03,0.000000,,2013-02-22 03:31:00,
2013-02-21 20:41:00,31.0,22.0,-100.00,NNW,328,4.0,13.0,68,0.00,,,0.03,0.000000,,2013-02-22 03:41:00,
2013-02-21 21:01:00,29.0,25.0,-100.00,NNW,328,6.0,12.0,84,0.00,,,0.03,0.000000,,2013-02-22 04:01:00,
2013-02-21 21:11:00,29.0,25.0,-100.00,NNW,328,6.0,12.0,84,0.00,,,0.03,0.000000,,2013-02-22 04:11:00,
2013-02-21 21:21:00,29.0,25.0,-100.00,NNW,328,6.0,12.0,84,0.00,,,0.03,0.000000,,2013-02-22 04:21:00,
2013-02-21 21:31:00,29.0,25.0,-100.00,NNW,328,6.0,12.0,84,0.00,,,0.03,0.000000,,2013-02-22 04:31:00,
2013-02-21 21:41:00,29.0,25.0,-100.00,NNW,328,6.0,12.0,84,0.00,,,0.03,0.000000,,2013-02-22 04:41:00,
2013-02-21 22:01:00,29.0,25.0,-100.00,NE,46,5.0,12.0,85,0.00,,,0.03,0.000000,,2013-02-22 05:01:00,
2013-02-21 22:11:00,29.0,25.0,-100.00,NE,46,5.0,12.0,85,0.00,,,0.03,0.000000,,2013-02-22 05:11:00,
2013-02-21 22:22:00,29.0,25.0,-100.00,NE,46,5.0,12.0,85,0.00,,,0.03,0.000000,,2013-02-22 05:22:00,
2013-02-21 22:32:00,29.0,25.0,-100.00,NE,46,5.0,12.0,85,0.00,,,0.03,0.000000,,2013-02-22 05:32:00,
2013-02-21 22:41:00,29.0,25.0,-100.00,NE,46,5.0,12.0,85,0.00,,,0.03,0.000000,,2013-02-22 05:41:00,
2013-02-21 23:01:00,28.0,25.0,-100.00,SE,143,2.0,5.0,87,0.00,,,0.03,0.000000,,2013-02-22 06:01:00,
2013-02-21 23:11:00,28.0,25.0,-100.00,SE,143,2.0,5.0,87,0.00,,,0.03,0.000000,,2013-02-22 06:11:00,
2013-02-21 23:21:00,28.0,25.0,-100.00,SE,143,2.0,5.0,87,0.00,,,0.03,0.000000,,2013-02-22 06:21:00,
2013-02-21 23:31:00,28.0,25.0,-100.00,SE,143,2.0,5.0,87,0.00,,,0.03,0.000000,,2013-02-22 06:31:00,
2013-02-21 23:42:00,28.0,25.0,-100.00,SE,143,2.0,5.0,87,0.00,,,0.03,0.000000,,2013-02-22 06:42:00,